GW5444 Weather Reports


time (UTC)temp
C
wind
direction
speed
KPH
gust
KPH
rain 1hr
cm
rain 24hr
cm
rain mn
cm
humidity
%
barometer
mb
20260503230504 16 204 4.8 12.9 0.00 0.00 0.00 44 1014.5
20260503230003 16 188 4.8 17.7 0.00 0.00 0.00 44 1014.6
20260503225503 16 199 3.2 17.7 0.00 0.00 0.00 44 1014.8
20260503225003 17 222 3.2 9.7 0.00 0.00 0.00 43 1014.9
20260503224503 17 217 3.2 9.7 0.00 0.00 0.00 43 1014.9
20260503224004 17 204 4.8 11.3 0.00 0.00 0.00 44 1014.8
20260503223504 17 199 3.2 11.3 0.00 0.00 0.00 47 1014.7
20260503223024 17 204 4.8 12.9 0.00 0.00 0.00 46 1014.7
20260503222525 17 186 6.4 17.7 0.00 0.00 0.00 42 1015.0
20260503222003 17 188 6.4 17.7 0.00 0.00 0.00 43 1015.0
20260503221504 17 209 4.8 12.9 0.00 0.00 0.00 40 1015.2
20260503221003 17 185 6.4 16.1 0.00 0.00 0.00 43 1015.3
20260503220504 17 180 6.4 16.1 0.00 0.00 0.00 44 1015.4
20260503220004 18 195 4.8 16.1 0.00 0.00 0.00 44 1015.4
20260503215503 17 182 6.4 24.1 0.00 0.00 0.00 43 1015.6
20260503215003 17 183 6.4 24.1 0.00 0.00 0.00 41 1015.7
20260503214503 18 205 4.8 11.3 0.00 0.00 0.00 42 1015.7
20260503214003 17 214 4.8 14.5 0.00 0.00 0.00 45 1015.5
20260503213503 17 190 6.4 17.7 0.00 0.00 0.00 41 1015.3
20260503213003 17 192 6.4 17.7 0.00 0.00 0.00 42 1015.4
20260503212524 17 218 6.4 19.3 0.00 0.00 0.00 38 1015.5
20260503212003 18 208 6.4 19.3 0.00 0.00 0.00 41 1015.7
20260503211503 18 194 6.4 19.3 0.00 0.00 0.00 42 1015.9
20260503211004 18 188 4.8 14.5 0.00 0.00 0.00 42 1015.9
20260503210504 18 197 4.8 14.5 0.00 0.00 0.00 42 1016.0
20260503210003 18 215 4.8 9.7 0.00 0.00 0.00 39 1015.9
20260503205503 17 189 6.4 17.7 0.00 0.00 0.00 39 1015.9
20260503205003 17 181 8.0 17.7 0.00 0.00 0.00 41 1016.0
20260503204503 17 195 6.4 19.3 0.00 0.00 0.00 38 1015.9
20260503204003 17 202 6.4 19.3 0.00 0.00 0.00 40 1016.1
20260503203503 17 197 6.4 19.3 0.00 0.00 0.00 40 1016.1
20260503203003 17 197 6.4 17.7 0.00 0.00 0.00 38 1016.3
20260503202503 17 194 8.0 17.7 0.00 0.00 0.00 39 1016.4
20260503202024 17 191 4.8 16.1 0.00 0.00 0.00 37 1016.6
20260503201503 18 202 4.8 12.9 0.00 0.00 0.00 42 1016.7
20260503201024 17 202 4.8 12.9 0.00 0.00 0.00 41 1016.9
20260503200503 17 202 6.4 16.1 0.00 0.00 0.00 42 1017.1
20260503200004 17 186 6.4 17.7 0.00 0.00 0.00 38 1017.4
20260503195503 17 165 8.0 17.7 0.00 0.00 0.00 41 1017.3
20260503195003 17 167 6.4 16.1 0.00 0.00 0.00 40 1017.4
20260503194503 17 191 3.2 12.9 0.00 0.00 0.00 41 1017.5
20260503194003 17 179 4.8 14.5 0.00 0.00 0.00 45 1017.5
20260503193503 17 185 6.4 14.5 0.00 0.00 0.00 40 1017.7
20260503193004 17 196 4.8 14.5 0.00 0.00 0.00 41 1017.8
20260503192525 17 163 8.0 20.9 0.00 0.00 0.00 43 1017.8
20260503192003 16 162 9.7 20.9 0.00 0.00 0.00 38 1017.9
20260503191503 17 178 4.8 19.3 0.00 0.00 0.00 37 1018.0
20260503191004 17 194 3.2 11.3 0.00 0.00 0.00 47 1018.1
20260503190503 17 202 3.2 8.0 0.00 0.00 0.00 43 1018.1
20260503190004 16 183 8.0 22.5 0.00 0.00 0.00 42 1018.3
20260503185525 16 168 9.7 22.5 0.00 0.00 0.00 43 1018.4
20260503185003 16 165 9.7 19.3 0.00 0.00 0.00 42 1018.3
20260503184504 16 158 8.0 19.3 0.00 0.00 0.00 41 1018.4
20260503184004 16 142 6.4 19.3 0.00 0.00 0.00 44 1018.5
20260503183504 16 150 6.4 19.3 0.00 0.00 0.00 38 1018.7
20260503183004 16 191 3.2 11.3 0.00 0.00 0.00 40 1018.7
20260503182504 16 174 4.8 17.7 0.00 0.00 0.00 48 1018.8
20260503182025 16 176 8.0 19.3 0.00 0.00 0.00 40 1018.8
20260503181505 16 182 6.4 19.3 0.00 0.00 0.00 39 1018.9
20260503181024 16 192 6.4 17.7 0.00 0.00 0.00 42 1018.9
20260503180503 16 191 6.4 16.1 0.00 0.00 0.00 42 1019.0
20260503180024 16 176 6.4 16.1 0.00 0.00 0.00 44 1019.0
20260503175503 15 183 6.4 16.1 0.00 0.00 0.00 41 1019.2
20260503175003 15 155 6.4 16.1 0.00 0.00 0.00 40 1019.3
20260503174504 15 152 6.4 16.1 0.00 0.00 0.00 42 1019.5
20260503174003 15 180 4.8 16.1 0.00 0.00 0.00 41 1019.5
20260503173524 15 172 6.4 20.9 0.00 0.00 0.00 42 1019.6
20260503173004 15 153 8.0 20.9 0.00 0.00 0.00 42 1019.7
20260503172525 15 147 8.0 20.9 0.00 0.00 0.00 42 1019.7
20260503172024 15 156 8.0 16.1 0.00 0.00 0.00 42 1019.7
20260503171503 15 157 6.4 14.5 0.00 0.00 0.00 39 1019.8
20260503171024 15 160 4.8 12.9 0.00 0.00 0.00 47 1019.8
20260503170503 15 167 4.8 16.1 0.00 0.00 0.00 38 1020.0
20260503150503 14 187 3.2 14.5 0.00 0.00 0.00 53 1021.0
20260503131003 8 169 4.8 9.7 0.00 0.00 0.00 74 1021.1
20260503130503 8 170 4.8 9.7 0.00 0.00 0.00 74 1021.0
20260503110504 -1 0 0.0 0.0 0.00 0.00 0.00 92 1020.4
20260503081503 0 0 0.0 0.0 0.00 0.00 0.00 89 1019.6
20260503081003 0 0 0.0 0.0 0.00 0.00 0.00 89 1019.6
20260503080503 0 0 0.0 0.0 0.00 0.00 0.00 89 1019.5
20260503072503 0 0 0.0 0.0 0.00 0.00 0.00 87 1019.4
20260503072003 0 0 0.0 0.0 0.00 0.00 0.00 86 1019.3
20260503071503 1 0 0.0 0.0 0.00 0.00 0.00 86 1019.3
20260503071003 1 0 0.0 0.0 0.00 0.00 0.00 86 1019.3
20260503070524 1 0 0.0 0.0 0.00 0.00 0.00 87 1019.3
20260503055003 3 0 0.0 0.0 0.00 0.00 0.00 80 1019.5
20260503054503 3 0 0.0 0.0 0.00 0.00 0.00 80 1019.5
20260503054003 4 0 0.0 0.0 0.00 0.00 0.00 79 1019.5
20260503053503 4 0 0.0 0.0 0.00 0.00 0.00 79 1019.5
20260503053003 4 0 0.0 0.0 0.00 0.00 0.00 78 1019.5
20260503052503 5 0 0.0 0.0 0.00 0.00 0.00 78 1019.5
20260503052024 5 0 0.0 0.0 0.00 0.00 0.00 77 1019.5
20260503051504 5 0 0.0 0.0 0.00 0.00 0.00 77 1019.4
20260503051003 5 311 0.0 1.6 0.00 0.00 0.00 77 1019.3
20260503050503 5 311 0.0 1.6 0.00 0.00 0.00 77 1019.4
20260503050003 5 332 0.0 1.6 0.00 0.00 0.00 78 1019.4
20260503045524 5 332 0.0 1.6 0.00 0.00 0.00 78 1019.4
20260503045003 5 0 0.0 0.0 0.00 0.00 0.00 79 1019.3
20260503044524 5 322 0.0 1.6 0.00 0.00 0.00 80 1019.3
20260503044003 5 322 0.0 1.6 0.00 0.00 0.00 80 1019.4
20260503043503 5 0 0.0 0.0 0.00 0.00 0.00 80 1019.3
20260503043025 5 0 0.0 0.0 0.00 0.00 0.00 80 1019.3
20260503042524 5 0 0.0 0.0 0.00 0.00 0.00 79 1019.3
20260503042003 5 0 0.0 0.0 0.00 0.00 0.00 78 1019.2
20260503041524 6 0 0.0 0.0 0.00 0.00 0.00 78 1019.2
20260503041003 6 0 0.0 0.0 0.00 0.00 0.00 77 1019.2
20260503040503 6 0 0.0 0.0 0.00 0.00 0.00 77 1019.2
20260503040004 6 0 0.0 0.0 0.00 0.00 0.00 76 1019.1
20260503035524 7 294 0.0 1.6 0.00 0.00 0.00 76 1019.1
20260503035003 7 294 0.0 1.6 0.00 0.00 0.00 76 1019.0
20260503034524 7 294 0.0 1.6 0.00 0.00 0.00 76 1019.0
20260503034003 7 294 0.0 1.6 0.00 0.00 0.00 76 1019.0
20260503033524 7 287 0.0 1.6 0.00 0.00 0.00 76 1019.0
20260503033004 7 284 0.0 1.6 0.00 0.00 0.00 76 1019.1
20260503032503 7 284 0.0 1.6 0.00 0.00 0.00 78 1019.0
20260503032024 7 0 0.0 0.0 0.00 0.00 0.00 79 1018.9
20260503031503 7 305 0.0 1.6 0.00 0.00 0.00 79 1018.8
20260503031003 7 307 0.0 3.2 0.00 0.00 0.00 79 1018.8
20260503030504 7 305 0.0 4.8 0.00 0.00 0.00 81 1018.7
20260503030004 7 304 0.0 4.8 0.00 0.00 0.00 83 1018.7
20260503025503 7 0 0.0 0.0 0.00 0.00 0.00 87 1018.7
20260503025003 7 0 0.0 0.0 0.00 0.00 0.00 87 1018.6
20260503024503 6 0 0.0 0.0 0.00 0.00 0.00 87 1018.6
20260503024003 7 0 0.0 0.0 0.00 0.00 0.00 87 1018.5
20260503023504 6 0 0.0 0.0 0.00 0.00 0.00 87 1018.5
20260503023024 7 0 0.0 0.0 0.00 0.00 0.00 86 1018.5
20260503022524 6 0 0.0 0.0 0.00 0.00 0.00 86 1018.4
20260503022003 6 0 0.0 0.0 0.00 0.00 0.00 86 1018.4
20260503021503 6 0 0.0 0.0 0.00 0.00 0.00 86 1018.3
20260503021025 6 0 0.0 0.0 0.00 0.00 0.00 85 1018.3
20260503020503 6 0 0.0 0.0 0.00 0.00 0.00 85 1018.3
20260503020003 6 0 0.0 0.0 0.00 0.00 0.00 83 1018.2
20260503015503 6 0 0.0 0.0 0.00 0.00 0.00 82 1018.1
20260503015004 6 0 0.0 0.0 0.00 0.00 0.00 82 1018.0
20260503014504 6 0 0.0 0.0 0.00 0.00 0.00 83 1018.0
20260503014003 7 0 0.0 0.0 0.00 0.00 0.00 83 1018.0
20260503013503 7 0 0.0 0.0 0.00 0.00 0.00 82 1018.0
20260503013003 7 0 0.0 0.0 0.00 0.00 0.00 80 1018.0
20260503012503 7 0 0.0 0.0 0.00 0.00 0.00 80 1017.9
20260503012004 7 0 0.0 0.0 0.00 0.00 0.00 80 1017.8
20260503011503 7 0 0.0 0.0 0.00 0.00 0.00 80 1017.8
20260503011003 7 0 0.0 0.0 0.00 0.00 0.00 79 1017.7
20260503010503 8 0 0.0 0.0 0.00 0.00 0.00 79 1017.6
20260503010003 8 0 0.0 0.0 0.00 0.00 0.00 78 1017.6
20260503005503 8 0 0.0 0.0 0.00 0.00 0.00 76 1017.6
20260503005003 8 0 0.0 0.0 0.00 0.00 0.00 75 1017.5
20260503004503 8 0 0.0 0.0 0.00 0.00 0.00 75 1017.5
20260503004003 8 0 0.0 0.0 0.00 0.00 0.00 74 1017.4
20260503003503 8 0 0.0 0.0 0.00 0.00 0.00 74 1017.4
20260503003025 8 0 0.0 0.0 0.00 0.00 0.00 73 1017.3
20260503002504 8 0 0.0 0.0 0.00 0.00 0.00 71 1017.3
20260503002003 9 0 0.0 0.0 0.00 0.00 0.00 71 1017.3
20260503001503 9 0 0.0 0.0 0.00 0.00 0.00 68 1017.2
20260503001003 10 0 0.0 0.0 0.00 0.00 0.00 68 1017.1
20260503000524 10 0 0.0 0.0 0.00 0.00 0.00 67 1017.1
20260503000003 10 0 0.0 0.0 0.00 0.00 0.00 66 1016.9
20260502235503 10 0 0.0 0.0 0.00 0.00 0.00 65 1016.9
20260502235003 11 0 0.0 0.0 0.00 0.00 0.00 64 1016.9
20260502234503 11 0 0.0 0.0 0.00 0.00 0.00 63 1016.8
20260502234003 11 0 0.0 0.0 0.00 0.00 0.00 62 1016.8
20260502233503 11 304 0.0 1.6 0.00 0.00 0.00 65 1016.7
20260502233025 11 303 0.0 1.6 0.00 0.00 0.00 61 1016.8
20260502232503 11 308 0.0 1.6 0.00 0.00 0.00 61 1016.8
20260502232024 11 315 0.0 1.6 0.00 0.00 0.00 62 1016.8
20260502231524 11 325 0.0 3.2 0.00 0.00 0.00 60 1016.8
20260502231003 11 308 1.6 4.8 0.00 0.00 0.00 59 1016.9